Flood From: 21-02-2018 18:00 Until: 22-02-2018 16:00 warning for: Flood Level: Yellow info button

Although rather usual in this region, locally or potentially dangerous phenomena are expected. (such as local winds, summer thunderstorms, rising streams or high waves) Be aware and pay attention to the latest weather updates, especially if you carry out activities exposed to weather or close to a stream or shoreline. 


Meteo18 Weather Cam more information Meteo18 Weather Cam


Thunder radar more information blitzortung!


Rain radar more information rain snow radar


Visit our other weather sites:

Template documentation
and downloads

And another site



Weather Underground History page Text

Daily Summary for January 26, 2018 Units:  Metric    English   Both
« Previous Day
Next Day »
Daily Weekly Monthly Yearly Custom
  High: Low: Average:
Temperature: -17.8 °C -15.9 °C -14.4 °C
Dew Point: -17.8 °C -16.6 °C -15.2 °C
Humidity: Humidity % 82 % 91 %
Wind Speed: 0 km/h 0 km/h 4 km/h
Wind Gust: 0 km/h - -
Wind:- - WSW
Pressure: 0 hPa 34384.8 hPa -
Precipitation: 12.7 mm    
Historical Graphs
 
 
Tabular Data for January 26, 2018
Time Temperature Dew Point Pressure Wind Wind Speed Wind Gust Humidity Rainfall Rate (Hourly)
-17.8 °C -17.8 °C 0 hPa Calm     Humidity % 0 mm
00:00 -14.6 °C -14.8 °C 34395 hPa Calm   5.1 km/h 97 % 12.7 mm
00:06 -14.6 °C -14.8 °C 34395 hPa Calm     97 % 12.7 mm
00:12 -14.6 °C -14.8 °C 34395 hPa Calm     97 % 12.7 mm
00:18 -14.6 °C -14.8 °C 34395 hPa Calm     97 % 12.7 mm
00:24 -14.6 °C -14.8 °C 34405.1 hPa Calm     97 % 12.7 mm
00:30 -14.6 °C -14.9 °C 34405.1 hPa Calm     96 % 12.7 mm
00:36 -14.6 °C -14.9 °C 34405.1 hPa Calm     96 % 12.7 mm
00:42 -14.6 °C -14.9 °C 34405.1 hPa Calm     96 % 12.7 mm
00:48 -14.6 °C -14.9 °C 34395 hPa Calm     96 % 12.7 mm
00:54 -14.6 °C -14.8 °C 34395 hPa Calm     97 % 12.7 mm
01:00 -14.6 °C -14.8 °C 34395 hPa Calm     97 % 12.7 mm
01:06 -14.6 °C -14.8 °C 34395 hPa Calm     97 % 7.62 mm
01:12 -14.6 °C -14.8 °C 34395 hPa SSW 2.3 km/h 2.6 km/h 97 % 7.62 mm
01:18 -14.6 °C -14.8 °C 34395 hPa WSW 5.1 km/h 7.7 km/h 97 % 7.62 mm
01:24 -14.6 °C -14.8 °C 34395 hPa Calm   2.6 km/h 97 % 7.62 mm
01:30 -14.6 °C -14.9 °C 34384.8 hPa Calm     96 % 7.62 mm
01:36 -14.6 °C -14.9 °C 34384.8 hPa Calm     96 % 0 mm
01:42 -14.6 °C -14.9 °C 34384.8 hPa WSW 2.3 km/h 5.1 km/h 96 % 0 mm
01:48 -14.5 °C -14.8 °C 34395 hPa SW 5.1 km/h 7.7 km/h 96 % 0 mm
01:54 -14.5 °C -14.8 °C 34395 hPa SW 2.3 km/h 7.7 km/h 96 % 0 mm
02:00 -14.5 °C -14.8 °C 34395 hPa WSW 5.1 km/h 12.9 km/h 96 % 0 mm
02:06 -14.5 °C -14.8 °C 34384.8 hPa SW 2.3 km/h 7.7 km/h 96 % 0 mm
02:12 -14.5 °C -14.8 °C 34384.8 hPa WSW 5.1 km/h 10.3 km/h 96 % 0 mm
02:18 -14.4 °C -14.8 °C 34395 hPa WSW 10.3 km/h 10.3 km/h 96 % 0 mm
02:24 -14.4 °C -14.8 °C 34384.8 hPa WSW 2.3 km/h 7.7 km/h 96 % 0 mm
02:30 -14.4 °C -14.7 °C 34395 hPa WSW 2.3 km/h 7.7 km/h 96 % 0 mm
02:36 -14.4 °C -14.7 °C 34395 hPa WSW 5.1 km/h 10.3 km/h 96 % 0 mm
02:42 -14.4 °C -14.7 °C 34405.1 hPa West 2.3 km/h 10.3 km/h 96 % 0 mm
02:48 -14.4 °C -14.7 °C 34405.1 hPa SW 2.3 km/h 7.7 km/h 96 % 0 mm
02:54 -14.3 °C -14.7 °C 34405.1 hPa West 2.3 km/h 7.7 km/h 96 % 0 mm
03:00 -14.3 °C -14.7 °C 34405.1 hPa WSW 7.6 km/h 10.3 km/h 96 % 0 mm
03:06 -14.3 °C -14.7 °C 34405.1 hPa Calm   7.7 km/h 96 % 0 mm
03:12 -14.3 °C -14.7 °C 34405.1 hPa West 2.3 km/h 7.7 km/h 96 % 0 mm
03:18 -14.3 °C -14.7 °C 34395 hPa West 5.1 km/h 5.1 km/h 96 % 0 mm
03:24 -14.3 °C -14.6 °C 34395 hPa WNW 5.1 km/h 5.1 km/h 96 % 0 mm
03:30 -14.3 °C -14.6 °C 34384.8 hPa WNW 7.6 km/h 7.7 km/h 96 % 0 mm
03:36 -14.3 °C -14.6 °C 34384.8 hPa WNW 5.1 km/h 7.7 km/h 96 % 0 mm
03:42 -14.3 °C -14.7 °C 34384.8 hPa WNW 2.3 km/h 7.7 km/h 95 % 0 mm
03:48 -14.3 °C -14.7 °C 34384.8 hPa Calm   2.6 km/h 95 % 0 mm
03:55 -14.3 °C -14.7 °C 34395 hPa Calm     95 % 0 mm
03:59 -14.3 °C -14.7 °C 34395 hPa Calm     95 % 0 mm
04:05 -14.3 °C -14.7 °C 34395 hPa Calm     95 % 0 mm
04:11 -14.3 °C -14.7 °C 34395 hPa Calm     95 % 0 mm
04:17 -14.3 °C -14.7 °C 34395 hPa Calm     95 % 0 mm
04:23 -14.3 °C -14.6 °C 34395 hPa Calm   2.6 km/h 96 % 0 mm
04:29 -14.3 °C -14.6 °C 34395 hPa Calm   2.6 km/h 96 % 0 mm
04:35 -14.3 °C -14.6 °C 34395 hPa Calm     96 % 0 mm
04:41 -14.3 °C -14.6 °C 34395 hPa Calm   2.6 km/h 96 % 0 mm
04:47 -14.3 °C -14.7 °C 34405.1 hPa Calm     96 % 0 mm
04:53 -14.3 °C -14.7 °C 34405.1 hPa Calm     96 % 0 mm
04:59 -14.3 °C -14.7 °C 34405.1 hPa Calm     96 % 0 mm
05:05 -14.3 °C -14.7 °C 34405.1 hPa Calm     96 % 0 mm
05:11 -14.3 °C -14.7 °C 34405.1 hPa Calm     96 % 0 mm
05:17 -14.4 °C -14.7 °C 34418.7 hPa SSW 2.3 km/h 7.7 km/h 96 % 0 mm
05:23 -14.4 °C -14.7 °C 34418.7 hPa SSW 2.3 km/h 5.1 km/h 96 % 0 mm
05:29 -14.4 °C -14.8 °C 34418.7 hPa SW 2.3 km/h 5.1 km/h 96 % 0 mm
05:35 -14.5 °C -14.8 °C 34428.8 hPa WSW 5.1 km/h 7.7 km/h 96 % 0 mm
05:41 -14.4 °C -14.7 °C 34428.8 hPa SW 2.3 km/h 5.1 km/h 97 % 0 mm
05:48 -14.4 °C -14.7 °C 34428.8 hPa WSW 5.1 km/h 7.7 km/h 97 % 0 mm
05:54 -14.4 °C -14.7 °C 34428.8 hPa Calm   7.7 km/h 97 % 0 mm
06:00 -14.4 °C -14.7 °C 34428.8 hPa SW 5.1 km/h 7.7 km/h 97 % 0 mm
06:06 -14.4 °C -14.7 °C 34428.8 hPa WSW 5.1 km/h 7.7 km/h 97 % 0 mm
06:12 -14.5 °C -14.7 °C 34428.8 hPa West 5.1 km/h 10.3 km/h 97 % 0 mm
06:18 -14.5 °C -14.7 °C 34428.8 hPa WSW 2.3 km/h 10.3 km/h 97 % 0 mm
06:24 -14.5 °C -14.7 °C 34428.8 hPa WSW 2.3 km/h 10.3 km/h 97 % 0 mm
06:30 -14.5 °C -14.7 °C 34428.8 hPa WSW 7.6 km/h 7.7 km/h 97 % 0 mm
06:36 -14.5 °C -14.7 °C 34428.8 hPa WSW 7.6 km/h 12.9 km/h 97 % 0 mm
06:42 -14.6 °C -14.8 °C 34428.8 hPa SW 7.6 km/h 12.9 km/h 97 % 0 mm
06:48 -14.6 °C -14.8 °C 34428.8 hPa West 5.1 km/h 10.3 km/h 97 % 0 mm
06:54 -14.6 °C -14.8 °C 34428.8 hPa West 7.6 km/h 10.3 km/h 97 % 0 mm
07:00 -14.6 °C -14.8 °C 34428.8 hPa WSW 10.3 km/h 12.9 km/h 97 % 0 mm
07:06 -14.6 °C -14.8 °C 34428.8 hPa West 5.1 km/h 7.7 km/h 97 % 0 mm
07:12 -14.7 °C -14.9 °C 34428.8 hPa West 5.1 km/h 7.7 km/h 97 % 0 mm
07:18 -14.7 °C -14.9 °C 34428.8 hPa West 7.6 km/h 7.7 km/h 97 % 0 mm
07:24 -14.7 °C -14.9 °C 34442.4 hPa West 7.6 km/h 12.9 km/h 97 % 0 mm
07:30 -14.7 °C -14.9 °C 34442.4 hPa West 10.3 km/h 12.9 km/h 97 % 0 mm
07:36 -14.6 °C -14.8 °C 34442.4 hPa West 7.6 km/h 12.9 km/h 97 % 0 mm
07:42 -14.6 °C -14.8 °C 34452.6 hPa WSW 7.6 km/h 7.7 km/h 97 % 0 mm
07:48 -14.6 °C -14.9 °C 34452.6 hPa WSW 12.7 km/h 12.9 km/h 96 % 0 mm
07:54 -14.6 °C -14.9 °C 34452.6 hPa SW 7.6 km/h 15.6 km/h 96 % 0 mm
08:00 -14.6 °C -14.9 °C 34452.6 hPa SW 5.1 km/h 12.9 km/h 96 % 0 mm
08:06 -14.6 °C -14.9 °C 34452.6 hPa WSW 2.3 km/h 7.7 km/h 96 % 0 mm
08:12 -14.6 °C -14.9 °C 34452.6 hPa SSW 2.3 km/h 7.7 km/h 96 % 0 mm
08:18 -14.7 °C -15 °C 34452.6 hPa WSW 2.3 km/h 5.1 km/h 96 % 0 mm
08:24 -14.7 °C -15 °C 34452.6 hPa WSW 5.1 km/h 5.1 km/h 96 % 0 mm
08:30 -14.7 °C -15.1 °C 34452.6 hPa SW 12.7 km/h 15.6 km/h 96 % 0 mm
08:36 -14.8 °C -15.1 °C 34452.6 hPa WNW 2.3 km/h 5.1 km/h 96 % 0 mm
08:42 -14.8 °C -15.1 °C 34452.6 hPa Calm   2.6 km/h 96 % 0 mm
08:48 -14.8 °C -15.1 °C 34462.7 hPa Calm     96 % 0 mm
08:54 -14.8 °C -15 °C 34462.7 hPa Calm   2.6 km/h 97 % 0 mm
09:00 -14.7 °C -14.9 °C 34462.7 hPa Calm   2.6 km/h 97 % 0 mm
09:06 -14.7 °C -14.9 °C 34476.3 hPa SW 2.3 km/h 7.7 km/h 97 % 0 mm
09:12 -14.7 °C -14.9 °C 34476.3 hPa WSW 5.1 km/h 12.9 km/h 97 % 0 mm
09:18 -14.7 °C -15 °C 34476.3 hPa West 10.3 km/h 15.6 km/h 96 % 0 mm
09:25 -14.6 °C -14.9 °C 34476.3 hPa West 5.1 km/h 7.7 km/h 96 % 0 mm
09:31 -14.6 °C -14.9 °C 34476.3 hPa WSW 10.3 km/h 10.3 km/h 96 % 0 mm
09:39 -14.6 °C -14.9 °C 34486.4 hPa West 5.1 km/h 5.1 km/h 96 % 0 mm
09:45 -14.6 °C -14.9 °C 34486.4 hPa West 7.6 km/h 10.3 km/h 96 % 0 mm
09:51 -14.5 °C -14.8 °C 34486.4 hPa WSW 15.6 km/h 15.6 km/h 96 % 0 mm
09:57 -14.5 °C -14.9 °C 34486.4 hPa WSW 7.6 km/h 10.3 km/h 95 % 0 mm
10:03 -14.4 °C -14.8 °C 34496.6 hPa WNW 10.3 km/h 10.3 km/h 95 % 0 mm
10:09 -14.4 °C -14.8 °C 34496.6 hPa WSW 5.1 km/h 12.9 km/h 95 % 0 mm
10:15 -14.4 °C -14.9 °C 34496.6 hPa WSW 5.1 km/h 7.7 km/h 94 % 0 mm
10:21 -14.3 °C -14.8 °C 34486.4 hPa WSW 2.3 km/h 5.1 km/h 94 % 0 mm
10:27 -14.3 °C -14.8 °C 34486.4 hPa West 2.3 km/h 7.7 km/h 94 % 0 mm
10:33 -14.3 °C -14.8 °C 34486.4 hPa WSW 5.1 km/h 5.1 km/h 94 % 0 mm
10:39 -14.3 °C -14.8 °C 34486.4 hPa Calm   10.3 km/h 94 % 0 mm
10:45 -14.3 °C -14.8 °C 34496.6 hPa SW 2.3 km/h 10.3 km/h 94 % 0 mm
10:51 -14.2 °C -14.7 °C 34496.6 hPa SSW 7.6 km/h 10.3 km/h 94 % 0 mm
10:57 -14.2 °C -14.7 °C 34496.6 hPa SW 10.3 km/h 10.3 km/h 94 % 0 mm
11:03 -14.2 °C -14.7 °C 34496.6 hPa SW 2.3 km/h 7.7 km/h 94 % 0 mm
11:09 -14.2 °C -14.7 °C 34510.1 hPa West 2.3 km/h 10.3 km/h 94 % 0 mm
11:15 -14.2 °C -14.8 °C 34510.1 hPa SW 5.1 km/h 12.9 km/h 93 % 0 mm
11:21 -14.2 °C -14.8 °C 34510.1 hPa Calm   2.6 km/h 93 % 0 mm
11:27 -14.2 °C -14.8 °C 34520.3 hPa SW 2.3 km/h 10.3 km/h 93 % 0 mm
11:33 -14.2 °C -14.8 °C 34520.3 hPa West 5.1 km/h 12.9 km/h 92 % 0 mm
11:39 -14.1 °C -14.7 °C 34520.3 hPa WSW 5.1 km/h 10.3 km/h 93 % 0 mm
11:45 -14.1 °C -14.7 °C 34520.3 hPa Calm   7.7 km/h 93 % 0 mm
11:51 -14.1 °C -14.8 °C 34520.3 hPa West 7.6 km/h 10.3 km/h 92 % 0 mm
11:57 -14.1 °C -14.8 °C 34520.3 hPa WSW 5.1 km/h 7.7 km/h 92 % 0 mm
12:03 -14.1 °C -14.8 °C 34520.3 hPa West 10.3 km/h 15.6 km/h 91 % 0 mm
12:09 -14.1 °C -14.8 °C 34520.3 hPa West 7.6 km/h 15.6 km/h 91 % 0 mm
12:15 -14 °C -14.8 °C 34520.3 hPa West 10.3 km/h 15.6 km/h 91 % 0 mm
12:21 -14 °C -14.8 °C 34520.3 hPa West 12.7 km/h 12.9 km/h 90 % 0 mm
12:27 -14 °C -14.8 °C 34520.3 hPa West 5.1 km/h 12.9 km/h 90 % 0 mm
12:33 -13.9 °C -14.7 °C 34520.3 hPa West 5.1 km/h 12.9 km/h 91 % 0 mm
12:39 -13.9 °C -14.9 °C 34520.3 hPa West 10.3 km/h 18.2 km/h 89 % 0 mm
12:45 -13.8 °C -14.8 °C 34533.8 hPa West 10.3 km/h 15.6 km/h 89 % 0 mm
12:51 -13.8 °C -14.7 °C 34520.3 hPa WSW 10.3 km/h 10.3 km/h 90 % 0 mm
12:57 -13.8 °C -14.8 °C 34520.3 hPa WSW 12.7 km/h 18.2 km/h 89 % 0 mm
13:03 -13.8 °C -14.8 °C 34520.3 hPa West 5.1 km/h 10.3 km/h 89 % 0 mm
13:09 -13.8 °C -14.8 °C 34520.3 hPa West 10.3 km/h 12.9 km/h 89 % 0 mm
13:15 -13.8 °C -14.7 °C 34533.8 hPa West 2.3 km/h 5.1 km/h 89 % 0 mm
13:21 -13.7 °C -14.8 °C 34533.8 hPa West 7.6 km/h 15.6 km/h 88 % 0 mm
13:27 -13.7 °C -14.8 °C 34533.8 hPa WSW 10.3 km/h 15.6 km/h 87 % 0 mm
13:33 -13.7 °C -14.9 °C 34533.8 hPa Calm   15.6 km/h 86 % 0 mm
13:39 -13.7 °C -14.8 °C 34533.8 hPa West 5.1 km/h 10.3 km/h 87 % 0 mm
13:45 -13.7 °C -14.9 °C 34544 hPa WNW 15.6 km/h 18.2 km/h 86 % 0 mm
13:51 -13.7 °C -14.8 °C 34544 hPa NW 2.3 km/h 10.3 km/h 87 % 0 mm
13:57 -13.7 °C -15 °C 34544 hPa Calm   12.9 km/h 85 % 0 mm
14:03 -13.7 °C -15 °C 34544 hPa WNW 5.1 km/h 18.2 km/h 85 % 0 mm
14:09 -13.7 °C -15.1 °C 34544 hPa WNW 5.1 km/h 23.3 km/h 84 % 0 mm
14:15 -13.7 °C -15.1 °C 34544 hPa WNW 7.6 km/h 18.2 km/h 84 % 0 mm
14:21 -13.6 °C -14.9 °C 34544 hPa NW 2.3 km/h 12.9 km/h 84 % 0 mm
14:27 -13.6 °C -14.9 °C 34544 hPa Calm   12.9 km/h 85 % 0 mm
14:33 -13.6 °C -14.9 °C 34544 hPa NW 5.1 km/h 10.3 km/h 84 % 0 mm
14:39 -13.6 °C -14.9 °C 34544 hPa NNW 5.1 km/h 12.9 km/h 84 % 0 mm
14:45 -13.5 °C -14.8 °C 34544 hPa NNW 2.3 km/h 12.9 km/h 85 % 0 mm
14:51 -13.5 °C -14.8 °C 34554.1 hPa NNW 7.6 km/h 10.3 km/h 85 % 0 mm
14:57 -13.4 °C -14.8 °C 34554.1 hPa NW 5.1 km/h 10.3 km/h 84 % 0 mm
15:03 -13.6 °C -15.1 °C 34554.1 hPa NW 5.1 km/h 12.9 km/h 83 % 0 mm
15:09 -13.7 °C -15.2 °C 34554.1 hPa NNW 2.3 km/h 12.9 km/h 83 % 0 mm
15:15 -13.7 °C -15.1 °C 34554.1 hPa WNW 2.3 km/h 7.7 km/h 84 % 0 mm
15:21 -13.7 °C -15.3 °C 34554.1 hPa NW 2.3 km/h 12.9 km/h 82 % 0 mm
15:27 -13.7 °C -15.2 °C 34554.1 hPa WNW 2.3 km/h 7.7 km/h 83 % 0 mm
15:33 -13.6 °C -15.1 °C 34554.1 hPa WNW 7.6 km/h 10.3 km/h 83 % 0 mm
15:39 -13.5 °C -15 °C 34554.1 hPa North 7.6 km/h 15.6 km/h 83 % 0 mm
15:45 -13.6 °C -14.9 °C 34554.1 hPa North 7.6 km/h 15.6 km/h 85 % 0 mm
15:51 -13.7 °C -14.9 °C 34554.1 hPa North 7.6 km/h 20.8 km/h 86 % 0 mm
15:57 -13.7 °C -14.9 °C 34567.7 hPa NNW 7.6 km/h 10.3 km/h 86 % 0 mm
16:03 -13.7 °C -14.9 °C 34567.7 hPa NNW 2.3 km/h 7.7 km/h 86 % 0 mm
16:09 -13.8 °C -15.1 °C 34567.7 hPa NW 2.3 km/h 12.9 km/h 85 % 0 mm
16:15 -13.8 °C -15.2 °C 34567.7 hPa WNW 7.6 km/h 12.9 km/h 84 % 0 mm
16:21 -13.8 °C -15.3 °C 34567.7 hPa NNW 7.6 km/h 10.3 km/h 83 % 0 mm
16:27 -13.8 °C -15.3 °C 34577.8 hPa North 5.1 km/h 7.7 km/h 83 % 0 mm
16:33 -13.8 °C -15.3 °C 34577.8 hPa North 7.6 km/h 12.9 km/h 83 % 0 mm
16:39 -13.7 °C -15.2 °C 34577.8 hPa North 2.3 km/h 5.1 km/h 83 % 0 mm
16:45 -13.7 °C -15.3 °C 34577.8 hPa WNW 2.3 km/h 5.1 km/h 82 % 0 mm
16:52 -13.6 °C -15.2 °C 34591.4 hPa West 2.3 km/h 5.1 km/h 82 % 0 mm
16:58 -13.6 °C -15.2 °C 34591.4 hPa WNW 10.3 km/h 10.3 km/h 82 % 0 mm
17:04 -13.7 °C -15.3 °C 34591.4 hPa WNW 5.1 km/h 7.7 km/h 82 % 0 mm
17:10 -13.7 °C -15.1 °C 34591.4 hPa WNW 2.3 km/h 7.7 km/h 84 % 0 mm
17:16 -13.7 °C -15.1 °C 34601.5 hPa Calm   2.6 km/h 84 % 0 mm
17:22 -13.8 °C -15.2 °C 34601.5 hPa West 5.1 km/h 5.1 km/h 84 % 0 mm
17:28 -13.8 °C -15.2 °C 34611.7 hPa WNW 2.3 km/h 2.6 km/h 85 % 0 mm
17:34 -13.9 °C -15.2 °C 34611.7 hPa WNW 2.3 km/h 2.6 km/h 86 % 0 mm
17:40 -14 °C -15.2 °C 34611.7 hPa West 2.3 km/h 2.6 km/h 86 % 0 mm
17:46 -14 °C -15.2 °C 34611.7 hPa WNW 2.3 km/h 5.1 km/h 86 % 0 mm
17:52 -14 °C -15.2 °C 34625.2 hPa WNW 2.3 km/h 7.7 km/h 86 % 0 mm
17:58 -14.1 °C -15.3 °C 34625.2 hPa Calm   5.1 km/h 86 % 0 mm
18:04 -14.1 °C -15.3 °C 34625.2 hPa NW 2.3 km/h 7.7 km/h 86 % 0 mm
18:10 -14.1 °C -15.3 °C 34635.4 hPa NNW 2.3 km/h 5.1 km/h 86 % 0 mm
18:16 -14.1 °C -15.3 °C 34635.4 hPa WNW 2.3 km/h 5.1 km/h 86 % 0 mm
18:22 -14.1 °C -15.3 °C 34635.4 hPa WNW 2.3 km/h 7.7 km/h 86 % 0 mm
18:28 -14.1 °C -15.2 °C 34645.6 hPa WNW 7.6 km/h 7.7 km/h 87 % 0 mm
18:34 -14.2 °C -15.3 °C 34645.6 hPa WNW 7.6 km/h 10.3 km/h 87 % 0 mm
18:40 -14.2 °C -15.3 °C 34645.6 hPa WNW 5.1 km/h 10.3 km/h 87 % 0 mm
18:46 -14.2 °C -15.3 °C 34645.6 hPa NW 5.1 km/h 5.1 km/h 87 % 0 mm
18:52 -14.2 °C -15.2 °C 34659.1 hPa Calm   12.9 km/h 88 % 0 mm
18:58 -14.2 °C -15.1 °C 34659.1 hPa North 5.1 km/h 10.3 km/h 89 % 0 mm
19:04 -14.2 °C -15.2 °C 34659.1 hPa NE 10.3 km/h 15.6 km/h 89 % 0 mm
19:10 -14.3 °C -15.1 °C 34659.1 hPa NNE 5.1 km/h 10.3 km/h 91 % 0 mm
19:16 -14.3 °C -15.1 °C 34659.1 hPa NE 5.1 km/h 10.3 km/h 91 % 0 mm
19:22 -14.4 °C -15.2 °C 34669.3 hPa North 2.3 km/h 12.9 km/h 91 % 0 mm
19:28 -14.5 °C -15.3 °C 34669.3 hPa Calm   5.1 km/h 91 % 0 mm
19:34 -14.6 °C -15.3 °C 34669.3 hPa Calm   7.7 km/h 91 % 0 mm
19:40 -14.6 °C -15.4 °C 34669.3 hPa Calm     91 % 0 mm
19:46 -14.7 °C -15.5 °C 34682.8 hPa Calm   2.6 km/h 91 % 0 mm
19:52 -14.8 °C -15.6 °C 34682.8 hPa NW 7.6 km/h 10.3 km/h 91 % 0 mm
19:58 -14.8 °C -15.6 °C 34682.8 hPa North 2.3 km/h 5.1 km/h 91 % 0 mm
20:04 -14.8 °C -15.6 °C 34669.3 hPa NNW 5.1 km/h 15.6 km/h 91 % 0 mm
20:10 -14.7 °C -15.6 °C 34682.8 hPa NNW 17.9 km/h 20.8 km/h 90 % 0 mm
20:16 -14.7 °C -15.7 °C 34682.8 hPa NNW 7.6 km/h 18.2 km/h 89 % 0 mm
20:22 -14.8 °C -15.7 °C 34682.8 hPa NE 5.1 km/h 15.6 km/h 89 % 0 mm
20:28 -14.8 °C -15.8 °C 34682.8 hPa NE 5.1 km/h 20.8 km/h 88 % 0 mm
20:34 -14.7 °C -15.8 °C 34682.8 hPa NNE 12.7 km/h 18.2 km/h 87 % 0 mm
20:40 -14.8 °C -16 °C 34682.8 hPa NE 5.1 km/h 10.3 km/h 86 % 0 mm
20:46 -14.8 °C -16.1 °C 34693 hPa North 7.6 km/h 12.9 km/h 86 % 0 mm
20:52 -14.9 °C -16.1 °C 34693 hPa Calm   5.1 km/h 86 % 0 mm
20:58 -15.1 °C -16.2 °C 34703.1 hPa NNE 5.1 km/h 5.1 km/h 86 % 0 mm
21:04 -15.1 °C -16.2 °C 34703.1 hPa NNE 5.1 km/h 5.1 km/h 86 % 0 mm
21:10 -15.1 °C -16.2 °C 34703.1 hPa North 2.3 km/h 5.1 km/h 86 % 0 mm
21:16 -15.1 °C -16.3 °C 34703.1 hPa Calm   2.6 km/h 86 % 0 mm
21:22 -15.3 °C -16.4 °C 34716.7 hPa Calm   2.6 km/h 87 % 0 mm
21:28 -15.3 °C -16.4 °C 34716.7 hPa Calm   5.1 km/h 87 % 0 mm
21:34 -15.4 °C -16.4 °C 34716.7 hPa North 2.3 km/h 2.6 km/h 88 % 0 mm
21:40 -15.4 °C -16.4 °C 34726.8 hPa Calm   2.6 km/h 88 % 0 mm
21:46 -15.4 °C -16.4 °C 34726.8 hPa Calm   2.6 km/h 88 % 0 mm
21:54 -15.5 °C -16.4 °C 34726.8 hPa NNW 2.3 km/h 2.6 km/h 89 % 0 mm
22:04 -15.5 °C -16.4 °C 34740.4 hPa Calm   7.7 km/h 89 % 0 mm
22:10 -15.6 °C -16.4 °C 34740.4 hPa Calm   5.1 km/h 89 % 0 mm
22:16 -15.6 °C -16.4 °C 34726.8 hPa NNE 2.3 km/h 5.1 km/h 90 % 0 mm
22:22 -15.7 °C -16.5 °C 34726.8 hPa North 2.3 km/h 5.1 km/h 90 % 0 mm
22:28 -15.7 °C -16.6 °C 34726.8 hPa NNW 5.1 km/h 5.1 km/h 90 % 0 mm
22:34 -15.8 °C -16.5 °C 34726.8 hPa North 2.3 km/h 5.1 km/h 91 % 0 mm
22:40 -15.8 °C -16.5 °C 34726.8 hPa NNW 2.3 km/h 5.1 km/h 91 % 0 mm
22:46 -15.8 °C -16.5 °C 34726.8 hPa NNW 5.1 km/h 7.7 km/h 91 % 0 mm
22:52 -15.7 °C -16.4 °C 34726.8 hPa Calm   5.1 km/h 91 % 0 mm
22:58 -15.8 °C -16.5 °C 34740.4 hPa NW 5.1 km/h 7.7 km/h 91 % 0 mm
23:04 -15.7 °C -16.4 °C 34740.4 hPa NNW 5.1 km/h 7.7 km/h 91 % 0 mm
23:10 -15.7 °C -16.3 °C 34740.4 hPa NW 2.3 km/h 10.3 km/h 92 % 0 mm
23:16 -15.7 °C -16.4 °C 34740.4 hPa NNW 7.6 km/h 10.3 km/h 92 % 0 mm
23:22 -15.8 °C -16.4 °C 34750.5 hPa NNW 7.6 km/h 7.7 km/h 92 % 0 mm
23:28 -15.8 °C -16.4 °C 34750.5 hPa NW 2.3 km/h 7.7 km/h 92 % 0 mm
23:34 -15.8 °C -16.3 °C 34750.5 hPa NW 2.3 km/h 7.7 km/h 93 % 0 mm
23:40 -15.8 °C -16.4 °C 34760.7 hPa NW 5.1 km/h 7.7 km/h 92 % 0 mm
23:46 -15.9 °C -16.4 °C 34760.7 hPa NW 2.3 km/h 5.1 km/h 93 % 0 mm
23:53 -15.9 °C -16.4 °C 34760.7 hPa Calm   2.6 km/h 93 % 0 mm
23:59 -15.9 °C -16.4 °C 34760.7 hPa Calm   2.6 km/h 93 % 0 mm
Meteo18
Compliments of Weather Underground - 4 mb

Script developed by  Jim McMurry - jmcmurry@mwt.net Adapted for the template by  Wim van der Kuil - Leuven-Template.eu

You find our weather info also at:

European Weather Network

Weather Underground

Equipment we use:

Weather-station
Davis Vue

Weather-program
Meteobridge

Weather-server
Raspberry PI 2 B+

Provider
1 and 1

Davis Vue

Meteobridge

Raspberry PI 2 B+

1 and 1